Volver al catálogo

STARLINK-11286

ActivoComunicacionesVLEO
NORAD 61050·PAYLOAD·🇺🇸 United States

Lanzado Sep 13, 2024 desde Vandenberg Space Force Base

Loading…

Próximos Pases (próximas 24 horas)

TLE

ActualizadoSource: CelesTrak SupGP

Época: Sep 14, 2026, 21:29 UTC

1 61050C 24164A   26257.89562500 -.00025181  00000+0 -20745-3 0  2572
2 61050  53.1570  98.5726 0001165  86.6536 344.5027 15.69719559    12

Sigue STARLINK-11286 en tiempo real con AllMySat

Download on the App Store